| time (UTC) | temp F | wind direction | speed knots | gust knots | rain 1hr in | rain 24hr in | rain mn in | humidity % | barometer mb |
| 20260904144518 | 72 | 150 | 0.0 | 0.0 | 0.00 | 0.00 | 0.00 | 88 | 1008.3 |
| 20260904143014 | 70 | 110 | 0.0 | 0.0 | 0.00 | 0.00 | 0.00 | 93 | 1008.4 |
| 20260904141521 | 69 | 194 | 0.0 | 0.0 | 0.00 | 0.00 | 0.00 | 97 | 1008.5 |
| 20260904140012 | 68 | 182 | 0.0 | 0.0 | 0.00 | 0.00 | 0.00 | 98 | 1008.4 |
| 20260904134508 | 68 | 176 | 0.0 | 0.0 | 0.00 | 0.00 | 0.00 | 98 | 1008.5 |
| 20260904133008 | 68 | 177 | 0.0 | 0.0 | 0.00 | 0.00 | 0.00 | 98 | 1008.5 |
| 20260904131507 | 68 | 188 | 0.0 | 0.0 | 0.00 | 0.00 | 0.00 | 98 | 1008.4 |
| 20260904130005 | 67 | 297 | 0.0 | 0.0 | 0.00 | 0.00 | 0.00 | 98 | 1008.6 |
| 20260904124502 | 66 | 297 | 0.0 | 0.0 | 0.00 | 0.00 | 0.00 | 99 | 1008.6 |
| 20260904123101 | 65 | 297 | 0.0 | 0.0 | 0.00 | 0.00 | 0.00 | 98 | 1008.6 |
| 20260904121600 | 63 | 297 | 0.0 | 0.0 | 0.00 | 0.00 | 0.00 | 98 | 1008.5 |
| 20260904120059 | 62 | 297 | 0.0 | 0.0 | 0.00 | 0.00 | 0.00 | 97 | 1008.6 |
| 20260904114559 | 62 | 297 | 0.0 | 0.0 | 0.00 | 0.00 | 0.00 | 97 | 1008.6 |
| 20260904113059 | 62 | 297 | 0.0 | 0.0 | 0.00 | 0.00 | 0.00 | 97 | 1008.6 |
| 20260904111557 | 62 | 297 | 0.0 | 0.0 | 0.00 | 0.00 | 0.00 | 97 | 1008.6 |
| 20260904110057 | 62 | 297 | 0.0 | 0.0 | 0.00 | 0.00 | 0.00 | 97 | 1008.6 |
| 20260904104559 | 62 | 297 | 0.0 | 0.0 | 0.00 | 0.00 | 0.00 | 97 | 1008.6 |
| 20260904103055 | 62 | 297 | 0.0 | 0.0 | 0.00 | 0.00 | 0.00 | 97 | 1008.5 |
| 20260904101554 | 62 | 297 | 0.0 | 0.0 | 0.00 | 0.00 | 0.00 | 97 | 1008.3 |
| 20260904100104 | 63 | 297 | 0.0 | 0.0 | 0.00 | 0.00 | 0.00 | 97 | 1008.2 |
| 20260904094552 | 63 | 297 | 0.0 | 0.0 | 0.00 | 0.00 | 0.00 | 97 | 1008.2 |
| 20260904093055 | 63 | 297 | 0.0 | 0.0 | 0.00 | 0.00 | 0.00 | 97 | 1008.2 |
| 20260904091551 | 63 | 297 | 0.0 | 0.0 | 0.00 | 0.00 | 0.00 | 97 | 1008.2 |
| 20260904090054 | 63 | 297 | 0.0 | 0.0 | 0.00 | 0.00 | 0.00 | 97 | 1008.1 |
| 20260904084550 | 63 | 297 | 0.0 | 0.0 | 0.00 | 0.00 | 0.00 | 97 | 1008.0 |
| 20260904083048 | 63 | 297 | 0.0 | 0.0 | 0.00 | 0.00 | 0.00 | 96 | 1008.2 |
| 20260904081547 | 63 | 297 | 0.0 | 0.0 | 0.00 | 0.00 | 0.00 | 96 | 1008.4 |
| 20260904080049 | 63 | 297 | 0.0 | 0.0 | 0.00 | 0.00 | 0.00 | 96 | 1008.3 |
| 20260904074550 | 63 | 297 | 0.0 | 0.0 | 0.00 | 0.00 | 0.00 | 96 | 1008.5 |
| 20260904073042 | 63 | 297 | 0.0 | 0.0 | 0.00 | 0.00 | 0.00 | 96 | 1008.8 |
| 20260904071541 | 63 | 297 | 0.0 | 0.0 | 0.00 | 0.00 | 0.00 | 96 | 1008.9 |
| 20260904070040 | 63 | 297 | 0.0 | 0.0 | 0.00 | 0.00 | 0.00 | 96 | 1008.9 |
| 20260904064538 | 64 | 297 | 0.0 | 0.0 | 0.00 | 0.00 | 0.00 | 96 | 1008.9 |
| 20260904063041 | 64 | 297 | 0.0 | 0.0 | 0.00 | 0.00 | 0.00 | 96 | 1009.0 |
| 20260904061536 | 64 | 297 | 0.0 | 0.0 | 0.00 | 0.00 | 0.00 | 96 | 1009.1 |
| 20260904060036 | 64 | 297 | 0.0 | 0.0 | 0.00 | 0.00 | 0.00 | 96 | 1009.2 |
| 20260904054532 | 64 | 297 | 0.0 | 0.0 | 0.00 | 0.00 | 0.00 | 96 | 1009.3 |
| 20260904053001 | 65 | 297 | 0.0 | 0.0 | 0.00 | 0.00 | 0.00 | 95 | 1009.4 |
| 20260904051552 | 65 | 297 | 0.0 | 0.0 | 0.00 | 0.00 | 0.00 | 95 | 1009.3 |
| 20260904050028 | 65 | 297 | 0.0 | 0.0 | 0.00 | 0.00 | 0.00 | 95 | 1009.6 |
| 20260904044525 | 66 | 297 | 0.0 | 0.0 | 0.00 | 0.00 | 0.00 | 95 | 1009.9 |
| 20260904043022 | 66 | 297 | 0.0 | 0.0 | 0.00 | 0.00 | 0.00 | 95 | 1010.1 |
| 20260904041523 | 66 | 297 | 0.0 | 0.0 | 0.00 | 0.00 | 0.00 | 95 | 1010.1 |
| 20260904040023 | 66 | 297 | 0.0 | 0.0 | 0.00 | 0.00 | 0.00 | 95 | 1010.2 |
| 20260904034518 | 67 | 297 | 0.0 | 0.0 | 0.00 | 0.00 | 0.00 | 95 | 1010.2 |
| 20260904033018 | 67 | 297 | 0.0 | 0.0 | 0.00 | 0.00 | 0.00 | 95 | 1010.3 |
| 20260904031517 | 67 | 297 | 0.0 | 0.0 | 0.00 | 0.00 | 0.00 | 95 | 1010.3 |
| 20260904030017 | 68 | 297 | 0.0 | 0.0 | 0.00 | 0.00 | 0.00 | 95 | 1010.3 |
| 20260904024516 | 68 | 297 | 0.0 | 0.0 | 0.00 | 0.00 | 0.00 | 95 | 1010.3 |
| 20260904023015 | 68 | 297 | 0.0 | 0.0 | 0.00 | 0.00 | 0.00 | 94 | 1010.5 |
| 20260904021517 | 68 | 297 | 0.0 | 0.0 | 0.00 | 0.00 | 0.00 | 95 | 1010.7 |
| 20260904020015 | 69 | 297 | 0.0 | 0.0 | 0.00 | 0.00 | 0.00 | 94 | 1010.8 |
| 20260904014514 | 69 | 297 | 0.0 | 0.0 | 0.00 | 0.00 | 0.00 | 94 | 1010.8 |
| 20260904013015 | 69 | 297 | 0.0 | 0.0 | 0.00 | 0.00 | 0.00 | 93 | 1011.0 |
| 20260904011517 | 69 | 297 | 0.0 | 0.0 | 0.00 | 0.00 | 0.00 | 93 | 1011.2 |
| 20260904010033 | 70 | 297 | 0.0 | 0.0 | 0.00 | 0.00 | 0.00 | 93 | 1010.9 |
| 20260904004513 | 70 | 297 | 0.0 | 0.0 | 0.00 | 0.00 | 0.00 | 92 | 1010.9 |
| 20260904003014 | 71 | 297 | 0.0 | 0.0 | 0.00 | 0.00 | 0.00 | 92 | 1010.5 |
| 20260904001513 | 71 | 297 | 0.0 | 0.0 | 0.00 | 0.00 | 0.00 | 92 | 1010.5 |
| 20260904000012 | 72 | 297 | 0.0 | 0.0 | 0.00 | 0.00 | 0.00 | 91 | 1010.2 |
| 20260903234511 | 72 | 297 | 0.0 | 0.0 | 0.00 | 0.00 | 0.00 | 90 | 1010.4 |
| 20260903233009 | 73 | 297 | 0.0 | 0.0 | 0.00 | 0.00 | 0.00 | 90 | 1010.3 |
| 20260903231509 | 74 | 297 | 0.0 | 0.0 | 0.00 | 0.00 | 0.00 | 89 | 1010.4 |
| 20260903230010 | 74 | 297 | 0.0 | 0.0 | 0.00 | 0.00 | 0.00 | 88 | 1010.0 |
| 20260903224505 | 75 | 65 | 0.0 | 0.0 | 0.00 | 0.00 | 0.00 | 88 | 1010.2 |
| 20260903223009 | 75 | 65 | 0.0 | 0.0 | 0.00 | 0.00 | 0.00 | 88 | 1010.3 |
| 20260903221505 | 76 | 65 | 0.0 | 0.0 | 0.00 | 0.00 | 0.00 | 88 | 1010.6 |
| 20260903220004 | 76 | 65 | 0.0 | 0.0 | 0.00 | 0.00 | 0.00 | 87 | 1010.4 |
| 20260903214503 | 76 | 65 | 0.0 | 0.0 | 0.00 | 0.00 | 0.00 | 88 | 1010.4 |
| 20260903213009 | 76 | 65 | 0.0 | 0.0 | 0.00 | 0.00 | 0.00 | 87 | 1010.2 |
| 20260903211502 | 76 | 65 | 0.0 | 0.0 | 0.00 | 0.00 | 0.00 | 87 | 1010.3 |
| 20260903210001 | 76 | 65 | 0.0 | 0.0 | 0.00 | 0.00 | 0.00 | 88 | 1010.2 |
| 20260903204618 | 76 | 65 | 0.0 | 0.0 | 0.00 | 0.00 | 0.00 | 87 | 1010.3 |
| 20260903203100 | 77 | 65 | 0.0 | 0.0 | 0.00 | 0.00 | 0.00 | 85 | 1010.4 |
| 20260903201558 | 77 | 65 | 0.0 | 0.0 | 0.00 | 0.00 | 0.00 | 85 | 1010.6 |
| 20260903194555 | 77 | 65 | 0.0 | 0.0 | 0.00 | 0.00 | 0.00 | 86 | 1010.6 |
| 20260903193054 | 77 | 65 | 0.0 | 0.0 | 0.00 | 0.00 | 0.00 | 87 | 1010.7 |
| 20260903191551 | 76 | 65 | 0.0 | 0.0 | 0.00 | 0.00 | 0.00 | 87 | 1010.9 |
| 20260903190050 | 76 | 65 | 0.0 | 0.0 | 0.00 | 0.00 | 0.00 | 89 | 1011.0 |
| 20260903184549 | 76 | 194 | 0.0 | 0.0 | 0.00 | 0.00 | 0.00 | 89 | 1011.1 |
| 20260903183047 | 76 | 194 | 0.0 | 0.0 | 0.00 | 0.00 | 0.00 | 89 | 1011.1 |
| 20260903181546 | 76 | 194 | 0.0 | 0.0 | 0.00 | 0.00 | 0.00 | 88 | 1011.4 |
| 20260903180049 | 77 | 195 | 0.0 | 0.0 | 0.00 | 0.00 | 0.00 | 87 | 1011.4 |
| 20260903174545 | 77 | 195 | 0.0 | 0.0 | 0.00 | 0.00 | 0.00 | 87 | 1011.4 |
| 20260903173043 | 76 | 199 | 0.0 | 0.0 | 0.00 | 0.00 | 0.00 | 88 | 1011.4 |
| 20260903171538 | 74 | 239 | 0.0 | 0.0 | 0.00 | 0.00 | 0.00 | 93 | 1011.6 |
| 20260903170035 | 73 | 227 | 0.0 | 0.0 | 0.00 | 0.00 | 0.00 | 96 | 1011.7 |
| 20260903164530 | 72 | 225 | 0.0 | 0.0 | 0.00 | 0.00 | 0.00 | 97 | 1011.5 |
| 20260903163029 | 71 | 225 | 0.0 | 0.0 | 0.00 | 0.00 | 0.00 | 97 | 1011.4 |
| 20260903161531 | 71 | 225 | 0.0 | 0.0 | 0.00 | 0.00 | 0.00 | 98 | 1011.5 |
| 20260903160051 | 71 | 225 | 0.0 | 0.0 | 0.00 | 0.00 | 0.00 | 98 | 1011.7 |
| 20260903154523 | 71 | 225 | 0.0 | 0.0 | 0.00 | 0.00 | 0.00 | 98 | 1011.9 |
| 20260903153022 | 70 | 225 | 0.0 | 0.0 | 0.00 | 0.00 | 0.00 | 98 | 1012.2 |
| 20260903151523 | 70 | 225 | 0.0 | 0.0 | 0.00 | 0.00 | 0.00 | 98 | 1012.3 |
| 20260903150025 | 70 | 224 | 0.0 | 0.0 | 0.00 | 0.00 | 0.00 | 98 | 1012.4 |